Wind_Speed
96 101 104 106 114 120 114 123 128 132 128 124 106 81 50 34 25 12 12 24 31 36 45 39 36 38 35 33 30 28 24 21 19 18 16 14 10 7 8 10 13 17 22 26 31 36 40 47 51 57 62 65 64 66
99 108 106 111 115 121 120 123 124 124 121 118 110 85 53 34 23 20 11 29 37 33 44 39 38 36 34 31 28 27 25 22 20 19 16 15 13 9 8 11 13 16 20 25 30 35 39 44 50 53 60 61 62 65
102 110 112 112 119 120 121 122 121 123 127 119 117 81 67 37 26 22 18 25 36 37 45 41 39 35 34 31 29 30 28 24 21 20 18 16 14 12 10 11 14 16 20 24 28 33 38 40 46 49 55 61 63 61
110 111 117 118 116 120 121 118 121 124 126 119 103 75 64 42 29 22 19 28 36 41 47 43 40 37 35 33 31 32 30 27 24 21 19 17 17 16 14 14 15 17 20 23 27 31 35 40 44 50 55 58 58 59
108 114 117 113 118 120 117 123 126 123 118 122 90 76 60 47 33 26 25 28 38 46 49 45 41 38 37 35 33 33 31 28 26 23 20 17 19 19 18 17 18 19 20 23 25 30 33 39 43 48 51 56 59 59
112 112 118 117 119 121 130 125 127 124 123 120 84 73 63 48 36 28 27 28 42 51 53 50 46 40 38 37 36 35 34 32 28 25 22 21 20 21 21 21 21 21 21 23 26 29 33 37 42 47 50 53 59 60
119 118 124 129 129 129 133 131 128 129 124 110 79 66 66 48 36 33 31 50 46 53 57 55 49 44 43 40 40 37 36 34 30 28 25 23 23 23 22 23 24 24 24 25 27 30 34 37 40 46 50 55 60 61
125 128 129 133 132 136 132 139 133 131 120 95 75 67 61 55 37 37 42 45 48 51 56 55 52 50 49 46 43 39 36 36 32 30 26 24 25 24 23 24 25 24 26 27 28 32 34 37 40 45 50 54 58 64
129 134 130 131 136 136 140 139 130 123 103 87 75 66 59 56 45 41 49 50 53 48 54 59 58 54 52 49 45 43 39 38 34 31 26 25 26 25 26 26 26 25 26 27 28 33 36 39 40 44 49 54 58 61
144 140 136 135 142 138 142 135 123 107 91 85 76 69 59 60 51 53 56 60 59 54 52 65 59 56 55 52 49 45 42 39 35 30 28 27 26 26 28 30 28 27 26 27 28 31 37 40 43 45 48 54 58 62
141 140 143 139 135 139 129 128 107 97 89 80 75 69 61 58 55 58 59 60 57 57 53 67 63 58 58 53 50 47 44 42 38 35 31 30 30 30 31 31 28 26 26 26 28 32 38 41 46 47 50 53 59 64
141 140 138 136 126 126 123 109 101 94 84 76 72 64 61 57 55 59 58 58 48 58 55 64 67 63 60 57 52 49 48 43 38 36 34 31 35 34 33 31 27 23 26 27 31 34 39 42 46 49 52 57 62 62
134 127 123 122 116 112 105 102 96 88 78 74 66 60 58 56 55 55 54 49 44 51 57 65 70 66 64 59 55 53 50 44 43 36 38 34 36 35 34 31 29 26 29 30 33 36 40 43 46 49 51 57 61 65
125 120 115 110 111 102 96 94 88 83 78 68 60 53 53 47 44 46 50 50 50 56 67 76 80 76 69 65 58 52 47 45 40 36 40 33 38 34 32 28 28 30 30 32 34 39 43 44 46 51 54 58 64 68
114 110 108 107 101 95 88 83 79 75 70 62 52 48 43 44 48 52 56 61 65 73 79 85 86 79 74 67 57 52 46 41 38 47 36 36 38 33 31 29 30 31 32 34 36 40 43 45 49 53 56 60 64 68
106 100 97 96 91 83 81 76 71 66 61 52 45 42 43 48 50 58 64 70 72 85 92 94 90 82 73 63 53 48 42 37 52 42 34 36 36 34 33 31 31 33 34 37 38 42 46 48 51 54 58 62 68 71
96 92 88 82 77 74 70 68 65 58 52 45 44 47 45 50 56 62 66 74 82 98 96 92 84 71 68 60 53 45 42 57 58 42 35 40 37 37 36 34 35 37 38 41 43 46 49 51 53 55 60 65 71 74
86 81 77 71 67 65 64 59 55 51 47 48 47 45 50 55 58 64 74 80 91 97 93 88 75 73 68 60 54 60 59 58 55 40 41 45 40 40 38 38 40 41 42 45 46 49 51 54 55 58 62 68 74 78
75 71 66 63 60 59 55 49 47 45 47 45 45 49 54 57 61 69 76 86 96 95 91 81 77 72 68 64 67 60 61 60 50 45 45 41 40 42 42 41 41 44 47 49 49 51 54 57 59 62 66 70 76 81
64 61 60 55 55 51 46 44 43 41 41 43 48 51 56 59 64 71 82 94 92 90 80 76 73 71 72 70 65 61 60 56 47 45 45 43 40 40 43 46 47 50 50 52 51 54 58 59 62 66 71 75 80 85
58 54 52 50 45 45 43 39 39 40 42 46 48 51 59 63 69 74 85 93 92 86 78 77 74 74 73 67 64 61 61 52 46 46 46 45 45 44 46 48 50 50 50 53 54 60 62 62 66 69 74 77 84 85
50 51 46 40 40 39 39 40 38 42 46 49 52 56 62 65 71 81 92 95 92 84 79 77 76 75 70 65 64 62 57 50 46 46 48 49 49 47 49 50 51 53 54 57 61 62 63 65 68 72 77 80 87 89
48 44 42 38 35 38 38 38 39 44 49 51 56 59 63 67 72 84 92 91 88 82 80 79 77 75 70 65 62 59 55 50 49 52 51 51 51 49 52 53 52 54 57 59 61 63 66 69 72 75 79 85 87 91
44 39 36 33 34 39 39 39 40 45 48 52 59 56 59 70 81 89 91 90 86 80 79 79 77 73 69 64 61 59 56 54 54 53 52 51 50 53 54 54 54 55 57 60 62 65 69 73 76 79 83 89 90 96
37 32 32 33 35 40 39 38 41 47 49 51 63 67 71 81 90 92 93 90 86 82 81 78 73 70 68 65 61 59 58 57 58 56 53 52 54 55 55 56 58 59 60 64 67 69 73 77 81 84 87 91 95 100
33 31 33 36 42 39 38 41 44 48 51 56 60 66 73 82 88 93 93 89 85 81 79 76 72 70 66 65 62 62 63 63 61 61 57 59 58 57 58 61 63 65 66 69 72 74 79 81 85 88 90 94 99 101
30 35 40 43 43 43 45 47 50 52 52 56 60 68 77 86 94 95 94 87 81 79 77 75 70 69 66 63 65 68 67 64 63 62 61 61 60 62 63 64 66 69 71 73 75 79 82 85 89 91 94 97 99 101
36 38 38 39 40 43 45 46 51 56 59 62 67 79 89 95 97 94 92 87 83 78 74 69 68 65 66 68 67 61 61 62 61 62 62 62 64 65 67 68 71 74 75 75 79 83 85 88 90 91 96 98 100 99
36 36 36 39 41 43 45 49 54 60 66 71 78 89 97 97 98 94 89 86 83 78 75 72 71 71 70 67 66 65 61 62 63 64 63 64 68 71 71 73 76 76 77 80 83 86 89 89 92 96 97 97 100 99
38 40 42 43 44 46 50 54 61 65 70 75 85 95 100 101 97 92 90 85 81 81 78 76 73 74 73 70 70 68 66 66 67 67 69 71 72 72 73 77 79 79 80 83 87 90 90 95 94 99 98 99 98 98
34 39 41 42 45 49 51 57 60 64 72 81 93 99 100 102 98 94 90 86 83 80 77 75 74 74 74 72 72 70 68 69 70 71 72 72 73 76 79 81 81 81 84 87 89 90 95 95 98 98 95 99 97 97
34 37 41 44 47 50 54 59 62 71 80 88 94 98 101 101 97 94 90 87 84 84 84 81 80 79 77 75 74 73 73 73 73 74 74 75 77 78 80 81 84 85 86 88 90 94 96 96 98 94 94 95 95 91
35 38 42 45 49 54 57 61 66 77 85 91 96 97 100 99 95 93 90 88 87 87 87 84 82 80 79 78 77 77 77 77 77 78 79 79 80 81 82 85 85 87 88 91 93 94 93 95 92 94 95 93 88 85
Wind_Direction
315 316 319 320 326 327 331 333 332 333 335 342 344 342 335 344 346 333 213 199 192 192 188 186 188 189 190 190 199 199 196 198 205 209 213 218 224 246 289 312 339 353 358 7 9 11 10 7 4 0 357 356 356 1
311 314 316 318 323 323 326 325 330 332 336 338 340 334 333 327 319 332 257 208 202 206 196 194 197 198 198 198 201 221 211 209 214 220 222 227 235 253 276 302 323 342 349 1 8 11 11 9 5 4 0 356 355 357
308 308 311 316 315 317 318 320 323 328 330 334 335 329 329 317 314 288 280 231 216 210 204 203 202 204 206 205 205 219 224 222 219 225 229 234 242 251 270 298 312 331 344 349 1 6 7 8 6 1 357 355 353 353
302 307 304 309 312 313 316 317 319 323 326 330 330 323 324 312 297 277 270 235 226 218 209 213 207 209 213 217 214 218 225 229 228 229 232 238 247 254 268 288 300 317 331 343 353 360 0 4 3 3 1 1 358 358
298 299 300 305 306 309 311 315 315 319 323 325 322 317 318 313 289 273 242 241 228 223 217 216 216 213 216 224 226 228 232 234 235 237 236 244 251 258 268 279 292 306 319 334 342 352 357 359 359 1 2 356 359 355
296 299 300 302 302 304 305 310 311 314 316 319 318 310 312 313 284 266 243 232 230 222 221 219 217 218 220 225 229 234 237 238 241 242 242 247 257 264 271 275 282 297 310 323 335 342 350 354 354 358 358 357 354 357
292 296 298 298 301 303 304 307 308 309 313 316 313 304 305 308 287 261 241 235 227 221 222 218 219 218 220 226 231 235 238 241 245 244 245 251 261 268 275 277 277 288 302 315 326 334 341 347 350 353 352 352 353 355
291 291 294 296 299 300 302 304 307 308 310 310 308 301 300 299 283 260 246 233 226 223 221 219 218 221 223 227 233 238 237 241 244 246 248 255 263 268 280 281 279 284 295 306 320 328 338 341 343 345 346 350 351 355
288 289 291 294 295 297 300 301 304 305 306 305 303 295 291 289 280 253 243 233 221 220 219 218 219 220 224 229 232 236 239 241 243 245 250 256 262 270 278 283 281 283 291 302 313 324 329 335 336 338 341 344 349 351
287 288 291 294 294 297 297 300 303 303 302 303 299 288 282 280 271 252 239 234 216 210 217 217 218 217 222 226 231 235 239 243 244 247 252 258 268 270 275 279 280 281 287 297 310 319 323 328 331 334 336 343 345 349
285 287 289 292 293 295 295 298 299 299 301 297 291 283 274 272 268 257 243 237 224 205 210 220 217 216 220 225 230 234 239 241 245 249 257 262 269 266 269 272 273 279 286 295 303 310 316 323 326 330 334 339 342 345
284 287 288 290 292 292 294 295 295 297 295 290 283 276 272 270 262 254 245 240 231 208 204 220 220 217 219 223 226 233 237 241 246 250 256 262 263 263 262 263 264 275 286 296 302 307 313 320 323 328 334 335 339 342
285 287 288 288 290 290 291 292 293 291 288 283 277 272 271 266 259 247 245 237 234 215 205 219 222 217 219 222 226 231 236 240 244 250 260 260 258 258 256 259 264 274 284 294 299 304 310 317 323 326 331 333 336 339
284 284 286 287 287 288 289 289 287 284 281 277 274 271 267 261 252 239 234 229 222 213 206 214 218 216 217 220 221 226 233 239 244 249 253 256 258 260 258 261 269 276 286 291 298 301 310 316 318 324 328 331 334 337
281 281 283 285 284 288 287 284 281 277 275 274 271 268 260 248 235 230 227 225 217 210 202 210 215 213 215 216 217 225 232 239 244 248 254 254 256 261 262 268 275 282 287 293 296 302 309 313 318 324 327 329 332 336
280 283 283 282 284 282 280 279 276 273 273 274 270 262 248 241 235 228 221 217 209 201 201 206 210 209 211 213 217 223 229 238 245 247 247 246 251 258 265 272 278 281 287 291 295 301 308 315 318 322 325 327 331 335
279 278 279 277 276 276 275 274 272 273 275 270 260 247 244 239 228 218 213 207 201 198 200 204 206 204 208 211 215 220 226 231 239 242 242 245 250 260 267 272 278 279 287 293 299 303 309 313 316 323 324 326 329 333
272 273 271 273 273 269 267 269 270 271 267 257 248 247 240 227 219 213 206 200 196 197 198 202 200 202 205 206 214 221 224 230 238 241 245 246 252 259 264 271 277 282 289 295 297 302 308 311 317 321 324 326 328 332
268 269 271 269 266 264 266 264 265 260 250 245 246 238 227 218 212 206 201 194 194 195 195 198 198 202 204 208 217 219 224 230 235 239 241 246 257 261 265 269 276 285 290 292 295 303 308 311 316 320 323 326 328 329
265 264 263 263 261 263 260 260 255 247 244 243 234 225 218 212 206 201 197 192 192 195 196 195 198 203 207 211 216 220 225 231 233 239 241 247 257 263 266 271 276 284 288 292 297 302 307 312 315 319 322 324 326 328
261 259 259 259 259 259 257 250 241 240 241 233 221 217 211 204 199 196 195 195 191 193 194 196 199 204 208 211 216 220 225 230 234 238 241 247 257 263 268 275 280 282 289 292 298 302 306 310 315 319 320 322 325 326
257 256 257 257 254 252 246 237 236 238 232 222 214 207 203 200 199 196 193 192 192 192 193 197 201 206 208 212 217 221 225 228 233 241 247 251 256 260 269 275 279 284 288 292 298 303 306 310 314 317 320 322 324 325
254 255 255 252 250 240 233 235 233 228 221 212 206 204 201 198 199 196 194 194 196 189 193 198 203 206 209 213 219 223 227 231 237 245 248 252 256 263 270 273 281 287 289 292 298 301 306 310 314 316 318 321 323 325
251 250 247 243 233 232 232 229 223 219 211 204 198 193 202 195 194 192 193 193 193 192 195 199 203 206 210 215 219 224 229 233 239 245 248 252 259 264 267 274 280 286 290 295 300 304 307 310 312 314 318 320 321 323
244 238 232 226 228 232 230 222 216 211 202 202 202 193 195 194 191 192 193 194 193 195 198 201 203 206 210 215 221 225 229 235 239 245 249 254 262 266 271 276 280 285 290 296 300 304 307 309 312 315 317 319 320 325
231 226 228 227 226 225 222 215 208 203 198 195 197 195 196 196 193 192 194 197 196 198 201 204 207 209 212 218 223 228 231 235 240 246 249 254 262 268 272 278 284 290 294 297 301 304 306 309 311 313 316 318 323 324
229 228 223 221 215 211 209 205 200 194 190 191 193 193 194 195 193 194 197 198 200 202 205 208 211 213 217 221 224 227 231 237 243 246 251 258 267 271 276 281 285 290 294 297 302 304 306 309 311 313 316 321 323 323
224 218 215 214 212 207 204 201 194 188 185 189 188 190 193 194 194 196 197 199 204 206 208 210 213 217 221 225 230 235 242 245 246 250 257 264 269 273 279 283 288 291 294 299 302 305 307 308 312 314 318 320 322 320
214 212 208 207 204 201 197 194 190 188 188 188 189 191 192 194 196 197 198 202 206 210 212 213 218 222 227 232 237 240 242 246 251 256 261 266 271 275 280 285 288 292 296 299 301 304 306 310 313 316 319 320 321 321
208 205 202 197 194 193 193 190 190 190 190 187 189 192 194 195 197 198 201 204 209 213 216 220 223 227 231 234 238 242 244 249 254 258 261 265 271 276 281 286 289 292 295 298 300 302 307 311 315 316 319 319 321 321
207 205 200 195 193 193 192 190 190 191 190 187 190 192 194 196 198 199 202 206 211 216 219 223 226 230 233 236 241 246 250 253 257 262 267 272 276 279 281 284 288 291 293 298 301 306 309 313 314 316 316 319 319 319
197 198 196 194 192 189 187 186 188 190 190 191 193 195 196 199 199 200 203 207 212 218 222 225 229 232 236 239 242 247 251 255 259 264 268 271 274 279 282 285 287 291 296 299 304 306 310 312 313 316 317 315 319 319
195 196 196 193 190 186 187 187 189 190 192 195 196 198 200 201 201 203 206 210 215 221 225 228 231 233 237 240 244 249 253 257 261 264 267 271 274 278 281 285 289 293 297 302 304 307 311 309 314 314 315 316 317 319
Height
10580 10574 10567 10563 10555 10549 10542 10535 10528 10522 10514 10515 10508 10503 10490 10483 10484 10484 10483 10482 10483 10486 10488 10490 10493 10496 10499 10501 10504 10506 10508 10510 10512 10513 10513 10514 10515 10515 10515 10513 10510 10507 10503 10498 10491 10485 10477 10467 10459 10447 10438 10428 10420 10412
10570 10563 10557 10553 10545 10538 10538 10528 10527 10520 10513 10510 10514 10503 10498 10487 10484 10486 10487 10486 10486 10489 10491 10492 10495 10498 10500 10502 10505 10508 10508 10509 10511 10512 10513 10513 10513 10513 10513 10512 10508 10505 10502 10497 10491 10484 10477 10469 10461 10452 10441 10431 10418 10409
10558 10551 10546 10542 10539 10534 10529 10527 10521 10517 10510 10506 10505 10501 10493 10487 10483 10483 10486 10486 10486 10487 10492 10493 10495 10497 10500 10502 10503 10506 10508 10508 10509 10510 10511 10511 10511 10511 10511 10510 10507 10504 10500 10495 10489 10483 10476 10471 10464 10455 10445 10431 10419 10407
10545 10540 10533 10533 10528 10522 10519 10516 10511 10512 10507 10499 10493 10491 10487 10482 10478 10477 10480 10482 10484 10486 10488 10492 10493 10495 10498 10500 10501 10503 10504 10505 10506 10507 10508 10508 10508 10508 10508 10507 10505 10502 10498 10494 10489 10482 10476 10469 10463 10455 10443 10433 10422 10410
10530 10526 10520 10520 10516 10508 10508 10501 10502 10496 10498 10494 10485 10478 10478 10474 10469 10469 10470 10474 10477 10481 10484 10486 10490 10492 10494 10497 10499 10501 10502 10502 10503 10504 10504 10504 10504 10504 10504 10504 10502 10499 10496 10492 10487 10481 10475 10468 10461 10454 10444 10436 10425 10414
10512 10512 10503 10503 10500 10496 10486 10490 10483 10482 10482 10482 10478 10461 10461 10463 10459 10459 10459 10464 10466 10469 10476 10479 10483 10488 10491 10492 10495 10497 10499 10499 10499 10500 10501 10501 10501 10501 10500 10500 10499 10496 10492 10489 10484 10478 10472 10466 10460 10451 10443 10436 10426 10417
10495 10494 10489 10481 10476 10475 10469 10468 10468 10461 10465 10463 10462 10453 10444 10448 10447 10444 10444 10443 10449 10455 10462 10471 10476 10482 10484 10486 10488 10491 10493 10494 10494 10495 10496 10497 10497 10496 10496 10495 10494 10491 10489 10485 10481 10475 10469 10463 10456 10448 10440 10433 10424 10414
10474 10470 10471 10463 10458 10453 10452 10440 10443 10442 10442 10442 10442 10436 10430 10428 10432 10428 10425 10424 10434 10442 10449 10461 10469 10472 10476 10479 10481 10484 10487 10488 10489 10490 10492 10492 10491 10491 10491 10490 10488 10487 10484 10481 10476 10470 10466 10459 10451 10445 10438 10430 10421 10410
10450 10445 10445 10444 10435 10431 10425 10421 10423 10419 10418 10416 10419 10417 10410 10408 10409 10408 10404 10405 10412 10426 10438 10447 10452 10460 10467 10472 10475 10478 10479 10481 10483 10485 10486 10486 10485 10485 10485 10484 10483 10482 10480 10476 10471 10467 10460 10454 10448 10441 10434 10426 10417 10407
10422 10421 10419 10417 10409 10401 10397 10397 10394 10393 10392 10391 10391 10393 10389 10383 10386 10384 10384 10386 10395 10409 10426 10432 10440 10451 10456 10462 10466 10470 10472 10475 10477 10479 10479 10480 10479 10479 10478 10477 10477 10475 10473 10470 10467 10462 10455 10449 10443 10437 10429 10420 10411 10402
10396 10395 10392 10393 10386 10377 10366 10365 10366 10364 10367 10363 10361 10364 10363 10360 10362 10361 10370 10376 10387 10399 10414 10420 10427 10437 10445 10452 10457 10462 10464 10467 10470 10472 10472 10472 10472 10472 10471 10470 10469 10467 10465 10463 10460 10455 10450 10444 10438 10432 10422 10414 10405 10395
10364 10367 10364 10361 10360 10352 10343 10339 10335 10334 10335 10333 10332 10336 10333 10337 10340 10342 10354 10367 10382 10393 10401 10407 10416 10422 10431 10438 10446 10451 10454 10459 10464 10464 10465 10465 10466 10465 10464 10462 10462 10460 10457 10455 10451 10447 10442 10437 10429 10423 10415 10406 10397 10387
10335 10332 10331 10330 10328 10323 10317 10310 10305 10301 10305 10301 10306 10309 10307 10313 10321 10331 10343 10358 10372 10385 10390 10398 10404 10411 10416 10427 10433 10439 10445 10452 10454 10459 10457 10457 10457 10458 10456 10455 10454 10452 10450 10447 10443 10438 10434 10429 10423 10415 10407 10399 10390 10380
10302 10301 10299 10298 10292 10293 10288 10281 10275 10272 10273 10276 10281 10285 10286 10297 10305 10313 10320 10332 10345 10357 10362 10370 10377 10385 10400 10407 10418 10430 10437 10441 10447 10450 10446 10451 10448 10449 10448 10447 10446 10443 10441 10439 10435 10429 10425 10421 10414 10406 10398 10389 10380 10371
10268 10269 10271 10269 10263 10262 10256 10250 10247 10248 10245 10249 10255 10260 10269 10273 10278 10284 10293 10303 10312 10322 10329 10340 10353 10369 10381 10395 10409 10420 10428 10437 10441 10432 10439 10442 10440 10440 10440 10439 10437 10435 10432 10430 10426 10421 10417 10412 10404 10396 10388 10380 10371 10361
10235 10241 10239 10235 10235 10232 10228 10223 10220 10220 10223 10226 10234 10237 10242 10246 10254 10257 10263 10270 10283 10295 10296 10308 10329 10350 10372 10389 10403 10414 10424 10429 10420 10424 10430 10431 10431 10432 10431 10429 10428 10425 10424 10421 10417 10412 10406 10400 10393 10386 10378 10370 10362 10351
10206 10209 10210 10210 10208 10207 10203 10198 10195 10199 10201 10207 10210 10209 10215 10220 10224 10229 10236 10246 10254 10262 10279 10301 10324 10350 10367 10381 10395 10407 10414 10401 10403 10414 10421 10420 10421 10422 10421 10420 10419 10416 10414 10411 10408 10402 10395 10390 10383 10375 10367 10358 10349 10338
10179 10182 10182 10183 10184 10184 10180 10180 10181 10178 10183 10184 10186 10190 10194 10197 10203 10212 10217 10225 10240 10254 10272 10295 10321 10336 10356 10373 10384 10380 10385 10392 10397 10407 10410 10409 10411 10412 10411 10410 10409 10406 10404 10401 10396 10390 10385 10379 10371 10364 10355 10346 10336 10326
10152 10153 10158 10160 10159 10158 10160 10162 10163 10164 10164 10166 10170 10173 10178 10182 10188 10197 10207 10220 10234 10246 10268 10291 10309 10332 10348 10356 10357 10369 10376 10381 10389 10394 10397 10399 10401 10401 10401 10400 10398 10395 10392 10389 10384 10378 10372 10366 10359 10351 10342 10333 10323 10314
10128 10133 10135 10136 10136 10138 10143 10144 10144 10148 10149 10151 10154 10159 10165 10171 10179 10190 10201 10214 10230 10247 10269 10289 10311 10325 10331 10337 10349 10359 10365 10372 10379 10383 10386 10389 10390 10391 10390 10389 10387 10383 10380 10376 10372 10366 10360 10353 10346 10338 10329 10320 10309 10299
10106 10111 10112 10116 10119 10121 10122 10127 10130 10130 10132 10135 10141 10147 10154 10161 10172 10184 10197 10210 10220 10247 10269 10283 10297 10308 10318 10329 10339 10348 10355 10362 10368 10373 10375 10377 10379 10380 10378 10377 10374 10371 10368 10364 10359 10354 10347 10340 10333 10325 10316 10306 10296 10285
10088 10088 10093 10099 10102 10104 10108 10111 10115 10116 10119 10124 10130 10137 10145 10155 10166 10177 10189 10203 10220 10242 10260 10275 10287 10299 10310 10321 10329 10338 10346 10352 10357 10361 10364 10365 10367 10367 10366 10364 10361 10358 10355 10351 10346 10340 10334 10328 10319 10311 10302 10291 10281 10271
10068 10073 10077 10082 10086 10089 10094 10096 10101 10103 10107 10113 10120 10127 10137 10147 10161 10172 10186 10205 10220 10233 10249 10264 10277 10289 10301 10312 10320 10329 10336 10341 10345 10349 10352 10354 10355 10354 10353 10351 10349 10346 10342 10338 10333 10327 10321 10314 10306 10297 10287 10277 10265 10255
10053 10060 10065 10068 10076 10077 10080 10084 10088 10091 10098 10105 10112 10123 10134 10145 10155 10170 10187 10201 10214 10228 10241 10253 10266 10280 10293 10302 10311 10319 10325 10330 10335 10337 10340 10341 10341 10341 10340 10338 10335 10332 10329 10324 10318 10313 10307 10300 10292 10283 10272 10261 10250 10240
10042 10047 10053 10059 10061 10062 10065 10071 10076 10082 10089 10098 10106 10112 10126 10137 10151 10168 10184 10195 10208 10219 10232 10245 10260 10273 10284 10293 10301 10309 10315 10319 10322 10325 10327 10328 10328 10328 10326 10324 10321 10318 10314 10309 10303 10298 10292 10285 10276 10266 10256 10246 10234 10223
10029 10036 10041 10044 10045 10049 10055 10060 10068 10075 10082 10090 10100 10111 10122 10137 10152 10168 10181 10190 10203 10215 10228 10240 10252 10263 10274 10282 10290 10296 10301 10306 10309 10312 10313 10314 10314 10314 10312 10309 10306 10302 10299 10294 10289 10283 10277 10269 10260 10250 10241 10231 10218 10205
10019 10023 10024 10027 10032 10036 10043 10051 10060 10069 10079 10090 10099 10109 10125 10140 10154 10164 10174 10190 10203 10213 10223 10235 10245 10254 10264 10271 10277 10282 10287 10292 10296 10299 10300 10300 10300 10298 10296 10294 10291 10288 10284 10279 10274 10268 10260 10252 10243 10235 10226 10214 10201 10187
10004 10008 10013 10017 10023 10029 10036 10046 10056 10065 10074 10083 10096 10110 10123 10137 10150 10159 10172 10186 10196 10207 10216 10227 10237 10246 10253 10259 10266 10272 10277 10280 10283 10285 10286 10286 10284 10283 10281 10278 10276 10272 10269 10264 10258 10251 10244 10235 10227 10218 10208 10196 10184 10169
9996 10001 10007 10012 10018 10026 10034 10044 10052 10060 10069 10080 10093 10107 10122 10136 10146 10157 10170 10179 10190 10201 10210 10219 10228 10235 10242 10248 10255 10260 10264 10267 10269 10270 10271 10270 10269 10267 10265 10263 10261 10258 10254 10248 10242 10235 10227 10219 10211 10201 10190 10178 10165 10150
9991 9995 10001 10007 10013 10020 10028 10036 10043 10052 10064 10076 10090 10105 10117 10129 10142 10155 10165 10176 10186 10194 10202 10210 10218 10225 10231 10237 10242 10246 10250 10252 10254 10255 10255 10254 10253 10252 10251 10250 10247 10243 10238 10232 10225 10218 10211 10203 10193 10183 10172 10160 10146 10131
9989 9993 9998 10003 10008 10014 10022 10030 10040 10052 10063 10074 10087 10099 10112 10124 10135 10148 10160 10170 10178 10185 10192 10200 10207 10213 10218 10223 10228 10232 10235 10237 10239 10239 10239 10240 10240 10239 10237 10235 10231 10226 10221 10215 10209 10202 10194 10185 10175 10164 10153 10140 10126 10112
9984 9989 9995 10000 10005 10012 10021 10030 10040 10050 10060 10071 10083 10094 10105 10116 10130 10142 10151 10160 10168 10174 10180 10187 10194 10200 10205 10210 10214 10217 10220 10222 10224 10225 10226 10226 10225 10223 10221 10218 10214 10209 10205 10199 10192 10184 10177 10167 10158 10147 10134 10120 10108 10093
9983 9989 9995 10001 10007 10014 10021 10030 10040 10049 10060 10071 10081 10091 10100 10112 10125 10136 10145 10153 10159 10164 10169 10176 10182 10187 10192 10196 10200 10203 10206 10209 10210 10211 10210 10209 10208 10207 10205 10202 10198 10193 10188 10181 10174 10166 10159 10150 10139 10127 10115 10103 10090 10078